TimeIST,TemperatureF,Dew PointF,Humidity,Sea Level PressureIn,VisibilityMPH,Wind Direction,Wind SpeedMPH,Gust SpeedMPH,PrecipitationIn,Events,Conditions,WindDirDegrees,DateUTC
12:50 AM,60.8,59.0,94,29.98,6.2,Variable,2.3,-,N/A,,Overcast,0,2012-11-24 22:50:00
1:50 AM,62.6,59.0,88,29.98,6.2,Variable,2.3,-,N/A,,Mostly Cloudy,0,2012-11-24 23:50:00
2:00 AM,62,59,85,30.00,6,,2.3,,,,Partly Cloudy,,2012-11-25 00:00:00
2:01 AM,59.0,57.2,94,29.98,3.7,NW,8.1,-,N/A,Rain,Rain,310,2012-11-25 00:01:00
2:25 AM,64.4,50.0,59,29.98,6.2,NE,10.4,-,N/A,,Overcast,40,2012-11-25 00:25:00
2:50 AM,60.8,53.6,77,29.98,6.2,East,5.8,-,N/A,,Mostly Cloudy,80,2012-11-25 00:50:00
3:50 AM,60.8,55.4,82,29.98,6.2,South,8.1,-,N/A,,Overcast,190,2012-11-25 01:50:00
4:50 AM,60.8,55.4,82,29.98,6.2,SSW,6.9,-,N/A,,Overcast,200,2012-11-25 02:50:00
5:50 AM,60.8,55.4,82,29.98,-9999.0,ESE,9.2,-,N/A,,Clear,110,2012-11-25 03:50:00
6:50 AM,60.8,55.4,82,30.01,-9999.0,South,5.8,-,N/A,,Clear,180,2012-11-25 04:50:00
7:50 AM,60.8,55.4,82,30.01,6.2,SE,2.3,-,N/A,,Mostly Cloudy,130,2012-11-25 05:50:00
8:00 AM,61,55,74,30.02,6,SE,2.3,,,Rain,Light Drizzle,130,2012-11-25 06:00:00
8:50 AM,62.6,55.4,77,29.98,6.2,South,10.4,-,N/A,,Mostly Cloudy,180,2012-11-25 06:50:00
9:50 AM,66.2,53.6,64,29.98,6.2,South,6.9,-,N/A,,Partly Cloudy,190,2012-11-25 07:50:00
10:50 AM,68.0,53.6,60,30.01,6.2,SSW,6.9,-,N/A,,Scattered Clouds,210,2012-11-25 08:50:00
11:50 AM,68.0,53.6,60,29.98,6.2,WSW,8.1,-,N/A,,Scattered Clouds,240,2012-11-25 09:50:00
12:50 PM,68.0,55.4,64,29.98,6.2,WSW,5.8,-,N/A,,Mostly Cloudy,250,2012-11-25 10:50:00
1:50 PM,69.8,55.4,60,29.95,6.2,SSW,6.9,-,N/A,,Mostly Cloudy,210,2012-11-25 11:50:00
2:00 PM,70,56,51,29.96,6,SSW,6.9,,,,Partly Cloudy,210,2012-11-25 12:00:00
2:50 PM,69.8,55.4,60,29.95,6.2,SSW,4.6,-,N/A,,Mostly Cloudy,210,2012-11-25 12:50:00
3:50 PM,69.8,55.4,60,29.95,6.2,South,3.5,-,N/A,,Mostly Cloudy,190,2012-11-25 13:50:00
4:50 PM,68.0,55.4,64,29.98,6.2,Variable,1.2,-,N/A,,Mostly Cloudy,0,2012-11-25 14:50:00
5:50 PM,68.0,57.2,68,29.98,6.2,North,2.3,-,N/A,Rain,Light Rain,10,2012-11-25 15:50:00
6:50 PM,64.4,59.0,83,30.01,6.2,SE,4.6,-,N/A,,Partly Cloudy,130,2012-11-25 16:50:00
7:50 PM,64.4,57.2,77,30.01,-9999.0,ENE,3.5,-,N/A,,Clear,70,2012-11-25 17:50:00
8:00 PM,64,57,72,30.02,6,ENE,3.5,,,,Partly Cloudy,70,2012-11-25 18:00:00
8:50 PM,62.6,57.2,82,30.01,-9999.0,ENE,2.3,-,N/A,,Clear,70,2012-11-25 18:50:00
9:50 PM,60.8,57.2,88,30.01,-9999.0,East,2.3,-,N/A,,Clear,90,2012-11-25 19:50:00
10:50 PM,60.8,55.4,82,30.01,-9999.0,Calm,Calm,-,N/A,,Clear,0,2012-11-25 20:50:00
11:50 PM,59.0,55.4,88,30.01,-9999.0,East,2.3,-,N/A,,Clear,80,2012-11-25 21:50:00